Weather History for Wayne, NE

Change the Weather History Date:

Wednesday, November 21, 2012

  Actual Average (KOFK) Record (KOFK)
Temperature  
Mean Temperature 57 °F 33 °F  
Max Temperature 72 °F 44 °F 72 °F (2012)
Min Temperature 42 °F 23 °F -5 °F (1926)
Degree Days  
Heating Degree Days 8 32  
Month to date heating degree days 550  
Since 1 July heating degree days 1135  
Cooling Degree Days 0 0  
Month to date cooling degree days 0  
Year to date cooling degree days 915  
Growing Degree Days 7 (Base 50)    
Moisture  
Dew Point 36 °F    
Average Humidity 49    
Maximum Humidity 70    
Minimum Humidity 26    
Precipitation  
Precipitation 0.00 in 0.04 in 0.40 in (1940)
Month to date precipitation 1.00  
Year to date precipitation 26.29  
Snow  
Snow 0.00 in 0.20 in - ()
Month to date snowfall 2.4  
Since 1 July snowfall 3.2  
Snow Depth -    
Sea Level Pressure  
Sea Level Pressure 29.90 in    
Wind  
Wind Speed 13 mph (SSW)    
Max Wind Speed 31 mph    
Max Gust Speed 37 mph    
Visibility 10 miles    
Events      
T = Trace of Precipitation, MM = Missing Value Source: NWS Daily Summary

Daily Weather History Graph

Daily Weather History Graph

Search for Another Location

Airport:

Trip Planner

Search our weather history database for the weather conditions in past years. The results will help you decide how hot, cold, wet, or windy it might be!

Date:

Astronomy

Nov. 21, 2012 Rise Set
Actual Time 7:26 AM CST 5:01 PM CST
Civil Twilight 6:55 AM CST 5:31 PM CST
Nautical Twilight 6:21 AM CST 6:06 PM CST
Astronomical Twilight 5:47 AM CST 6:39 PM CST
Moon 1:24 PM CST (11/21) 12:39 AM CST (11/21)
Length of Visible Light 10h 36m
Length of Day
9h 34m
First Quarter, 62% of the Moon is Illuminated
Nov 21
First Quarter
Nov 28
Full
Dec 6
Last Quarter
Dec 13
New
Dec 19
First Quarter

Hourly Weather History & Observations

Time (CST) Temp. Windchill Dew Point Humidity Pressure Visibility Wind Dir Wind Speed Gust Speed Precip Events Conditions
12:15 AM 48.6 °F - 34.3 °F 58% 30.05 in 10.0 mi SSW 6.9 mph - N/A   Clear
12:35 AM 49.3 °F - 34.7 °F 57% 30.04 in 10.0 mi SSW 11.5 mph - N/A   Clear
12:55 AM 48.9 °F - 34.7 °F 58% 30.04 in 10.0 mi SW 9.2 mph - N/A   Clear
1:15 AM 48.4 °F - 34.7 °F 59% 30.04 in 10.0 mi SSW 8.1 mph - N/A   Clear
1:35 AM 48.2 °F - 34.7 °F 60% 30.03 in 10.0 mi SSW 6.9 mph - N/A   Clear
1:55 AM 47.7 °F - 34.7 °F 61% 30.03 in 10.0 mi SSW 6.9 mph - N/A   Clear
2:15 AM 47.7 °F - 34.7 °F 61% 30.03 in 10.0 mi SSW 6.9 mph - N/A   Clear
2:35 AM 47.8 °F - 34.9 °F 61% 30.04 in 10.0 mi SSW 8.1 mph - N/A   Clear
2:55 AM 47.5 °F - 35.1 °F 62% 30.04 in 10.0 mi SSW 9.2 mph - N/A   Clear
3:15 AM 46.4 °F 44.3 °F 34.7 °F 64% 30.03 in 10.0 mi SSW 4.6 mph - N/A   Clear
3:35 AM 45.1 °F 42.0 °F 34.7 °F 67% 30.03 in 10.0 mi SSW 5.8 mph - N/A   Clear
3:55 AM 44.4 °F 42.9 °F 34.3 °F 68% 30.03 in 10.0 mi SSW 3.5 mph - N/A   Clear
4:15 AM 45.1 °F 39.9 °F 34.7 °F 67% 30.02 in 10.0 mi SSW 10.4 mph - N/A   Clear
4:35 AM 45.5 °F 40.3 °F 34.7 °F 66% 30.01 in 10.0 mi SSW 10.4 mph - N/A   Clear
4:55 AM 44.8 °F 39.4 °F 34.7 °F 68% 30.01 in 10.0 mi SSW 10.4 mph - N/A   Clear
5:15 AM 44.6 °F 38.8 °F 34.5 °F 68% 30.01 in 10.0 mi SSW 11.5 mph - N/A   Clear
5:35 AM 44.6 °F 38.4 °F 34.5 °F 68% 30.01 in 10.0 mi SSW 12.7 mph - N/A   Clear
6:15 AM 43.7 °F 38.1 °F 34.2 °F 69% 30.00 in 10.0 mi SSW 10.4 mph - N/A   Clear
6:35 AM 42.8 °F 37.0 °F 33.8 °F 70% 30.00 in 10.0 mi SSW 10.4 mph - N/A   Clear
6:55 AM 44.6 °F 38.4 °F 34.7 °F 68% 30.00 in 10.0 mi SW 12.7 mph - N/A   Clear
7:15 AM 44.6 °F 38.8 °F 34.5 °F 68% 30.00 in 10.0 mi SW 11.5 mph - N/A   Clear
7:35 AM 44.6 °F 39.2 °F 34.7 °F 68% 30.00 in 10.0 mi SW 10.4 mph 16.1 mph N/A   Clear
7:55 AM 45.0 °F 39.3 °F 34.9 °F 68% 30.00 in 10.0 mi SW 11.5 mph - N/A   Clear
8:15 AM 46.0 °F 39.9 °F 35.2 °F 66% 30.00 in 10.0 mi SW 13.8 mph - N/A   Clear
8:35 AM 47.5 °F - 35.6 °F 63% 30.00 in 10.0 mi SW 9.2 mph - N/A   Clear
8:55 AM 49.1 °F - 36.0 °F 61% 30.00 in 10.0 mi SW 12.7 mph - N/A   Clear
9:15 AM 50.5 °F - 36.5 °F 59% 30.00 in 10.0 mi SSW 11.5 mph 18.4 mph N/A   Clear
9:35 AM 52.2 °F - 37.0 °F 56% 29.99 in 10.0 mi SSW 12.7 mph 18.4 mph N/A   Clear
9:55 AM 54.5 °F - 37.2 °F 52% 29.98 in 10.0 mi SSW 17.3 mph 23.0 mph N/A   Clear
10:15 AM 56.5 °F - 37.2 °F 49% 29.98 in 10.0 mi SSW 18.4 mph 24.2 mph N/A   Clear
10:35 AM 58.1 °F - 36.7 °F 45% 29.98 in 10.0 mi SW 23.0 mph 28.8 mph N/A   Clear
10:55 AM 59.7 °F - 36.0 °F 41% 29.97 in 10.0 mi SSW 20.7 mph 25.3 mph N/A   Clear
11:15 AM 61.7 °F - 35.1 °F 37% 29.96 in 10.0 mi SSW 20.7 mph 24.2 mph N/A   Clear
11:35 AM 62.6 °F - 34.7 °F 35% 29.94 in 10.0 mi SSW 18.4 mph - N/A   Clear
11:55 AM 64.9 °F - 34.0 °F 32% 29.93 in 10.0 mi SSW 25.3 mph 31.1 mph N/A   Clear
12:15 PM 67.1 °F - 34.3 °F 30% 29.91 in 10.0 mi SSW 24.2 mph 33.4 mph N/A   Clear
12:35 PM 68.2 °F - 34.7 °F 29% 29.90 in 10.0 mi SSW 29.9 mph 36.8 mph N/A   Clear
12:55 PM 68.9 °F - 35.2 °F 29% 29.88 in 10.0 mi SSW 26.5 mph 35.7 mph N/A   Clear
1:15 PM 70.5 °F - 34.5 °F 27% 29.87 in 10.0 mi SSW 26.5 mph 33.4 mph N/A   Clear
1:35 PM 71.1 °F - 35.1 °F 27% 29.86 in 10.0 mi SSW 25.3 mph 34.5 mph N/A   Clear
1:55 PM 71.8 °F - 34.5 °F 26% 29.85 in 10.0 mi SSW 28.8 mph 34.5 mph N/A   Clear
2:15 PM 71.6 °F - 34.5 °F 26% 29.84 in 10.0 mi SSW 31.1 mph 35.7 mph N/A   Clear
2:35 PM 72.0 °F - 35.2 °F 26% 29.83 in 10.0 mi SSW 25.3 mph 33.4 mph N/A   Clear
2:55 PM 71.8 °F - 36.5 °F 28% 29.81 in 10.0 mi SSW 27.6 mph 34.5 mph N/A   Clear
3:15 PM 71.6 °F - 36.5 °F 28% 29.81 in 10.0 mi SSW 20.7 mph 32.2 mph N/A   Clear
3:35 PM 71.1 °F - 35.6 °F 27% 29.81 in 10.0 mi SSW 19.6 mph 29.9 mph N/A   Clear
3:55 PM 71.1 °F - 35.1 °F 27% 29.81 in 10.0 mi SSW 20.7 mph 32.2 mph N/A   Clear
4:15 PM 70.7 °F - 36.5 °F 29% 29.81 in 10.0 mi SSW 24.2 mph 31.1 mph N/A   Clear
4:35 PM 69.8 °F - 37.0 °F 30% 29.81 in 10.0 mi SSW 19.6 mph 26.5 mph N/A   Clear
4:55 PM 67.6 °F - 36.5 °F 32% 29.81 in 10.0 mi SSW 16.1 mph - N/A   Clear
5:15 PM 66.4 °F - 36.7 °F 33% 29.80 in 10.0 mi South 16.1 mph - N/A   Clear
5:35 PM 64.4 °F - 36.9 °F 36% 29.80 in 10.0 mi South 15.0 mph 19.6 mph N/A   Clear
5:55 PM 63.5 °F - 36.5 °F 37% 29.80 in 10.0 mi South 17.3 mph - N/A   Clear
6:15 PM 63.7 °F - 36.5 °F 36% 29.80 in 10.0 mi South 16.1 mph - N/A   Clear
6:35 PM 62.4 °F - 36.5 °F 38% 29.79 in 10.0 mi South 16.1 mph - N/A   Clear
6:55 PM 62.1 °F - 36.3 °F 38% 29.79 in 10.0 mi South 17.3 mph - N/A   Clear
7:15 PM 60.8 °F - 36.5 °F 40% 29.79 in 10.0 mi South 17.3 mph - N/A   Clear
7:35 PM 60.4 °F - 36.5 °F 41% 29.79 in 10.0 mi South 17.3 mph - N/A   Clear
7:55 PM 59.2 °F - 36.5 °F 43% 29.78 in 10.0 mi South 17.3 mph 23.0 mph N/A   Clear
8:15 PM 57.9 °F - 37.4 °F 46% 29.78 in 10.0 mi South 18.4 mph - N/A   Clear
8:35 PM 57.4 °F - 37.8 °F 48% 29.77 in 10.0 mi South 18.4 mph - N/A   Clear
8:55 PM 57.2 °F - 38.3 °F 49% 29.77 in 10.0 mi South 17.3 mph - N/A   Clear
9:15 PM 56.3 °F - 38.5 °F 51% 29.77 in 10.0 mi South 15.0 mph - N/A   Clear
9:35 PM 55.4 °F - 38.7 °F 53% 29.77 in 10.0 mi South 16.1 mph - N/A   Clear
9:55 PM 55.6 °F - 39.0 °F 54% 29.77 in 10.0 mi South 16.1 mph - N/A   Clear
10:15 PM 55.8 °F - 39.4 °F 54% 29.76 in 10.0 mi South 13.8 mph - N/A   Clear
10:35 PM 54.5 °F - 39.4 °F 57% 29.76 in 10.0 mi SSW 9.2 mph - N/A   Clear
10:55 PM 55.8 °F - 39.6 °F 55% 29.76 in 10.0 mi SSW 5.8 mph - N/A   Clear
11:15 PM 55.6 °F - 39.7 °F 55% 29.75 in 10.0 mi SSW 9.2 mph - N/A   Clear
11:35 PM 55.4 °F - 39.9 °F 56% 29.74 in 10.0 mi SW 8.1 mph - N/A   Clear
11:55 PM 55.8 °F - 39.7 °F 55% 29.74 in 10.0 mi SW 8.1 mph - N/A   Clear